Overview Statistics Trail Chart Weather Telemetry Raw packets
 

This is the latest recevied weather packets stored in our database for station/object N2ZVN. If no packets are shown the sender has not sent any weather packets the latest 10 day(s).

<< 7 8 9 10 11 12 13 >>
Time Temp. Humidity Pressure Rain* Wind** Luminosity Snow
1788656488 17.78° C 94% 1016 hPa 0 mm - 0 W/m² -
1788656187 17.78° C 94% 1016 hPa 0 mm - 0 W/m² -
1788655887 17.78° C 93% 1015.8 hPa 0 mm - 0 W/m² -
1788655586 18.33° C 93% 1015.8 hPa 0 mm - 0 W/m² -
1788655281 18.33° C 93% 1016 hPa 0 mm - 0 W/m² -
1788654976 18.33° C 92% 1015.6 hPa 0 mm - 0 W/m² -
1788654673 18.89° C 91% 1015.5 hPa 0 mm - 0 W/m² -
1788654373 18.89° C 89% 1015.7 hPa 0 mm - 0 W/m² -
1788654068 18.89° C 90% 1015.6 hPa 0 mm - 0 W/m² -
1788653763 18.89° C 91% 1015.7 hPa 0 mm - 0 W/m² -
1788653463 19.44° C 87% 1015.7 hPa 0 mm - 0 W/m² -
1788653159 19.44° C 88% 1015.7 hPa 0 mm - 0 W/m² -
1788652884 19.44° C 87% 1015.7 hPa 0 mm - 0 W/m² -
1788652553 19.44° C 85% 1015.8 hPa 0 mm - 0 W/m² -
1788652248 20° C 84% 1015.8 hPa 0 mm - 0 W/m² -
1788651943 20° C 84% 1015.8 hPa 0 mm - 1 W/m² -
1788651639 20.56° C 82% 1015.8 hPa 0 mm - 1 W/m² -
1788651338 20.56° C 81% 1015.7 hPa 0 mm - 2 W/m² -
1788651043 20.56° C 79% 1015.8 hPa 0 mm - 3 W/m² -
1788650734 21.11° C 80% 1015.9 hPa 0 mm - 5 W/m² -
1788650430 21.11° C 75% 1015.8 hPa 0 mm - 7 W/m² -
1788650130 21.11° C 74% 1015.8 hPa 0 mm - 9 W/m² -
1788649826 21.67° C 74% 1016 hPa 0 mm - 11 W/m² -
1788649526 21.67° C 74% 1016 hPa 0 mm - 15 W/m² -
1788649224 21.67° C 73% 1015.8 hPa 0 mm - 18 W/m² -

* Rain latest hour (hover to see other rain measurements)
** Current wind speed in m/s (hover to see current wind gust speed)